HRC MONOBLOCK CAMERA

Last updated on Sun Jun 21 2026 00:02:11 GMT+0000 (Coordinated Universal Time)

1 66052U 98067XR 26171.43899803 .00068928 00000+0 46509-3 0 9999 2 66052 51.6232 262.4651 0002053 318.4320 41.6522 15.74446165 38517
UTC large
Height (km)
Speed (km/s)
/
Latitude / Longitude
Inclination (degrees)
Orbital Period (minutes)
Azimuth
Elevation
Range (km)
Doppler Factor

Next 0 passes for location: London (51.5072 / 0.1276)

No passes found over London.
HRC MONOBLOCK CAMERA